Date,TemperatureHighF,TemperatureAvgF,TemperatureLowF,DewpointHighF,DewpointAvgF,DewpointLowF,HumidityHigh,HumidityAvg,HumidityLow,PressureMaxIn,PressureMinIn,WindSpeedMaxMPH,WindSpeedAvgMPH,GustSpeedMaxMPH,PrecipitationSumIn
2012-1-1,77.1,61.9,49.3,58.8,52.9,46.5,91,75,44,30.25,30.12,7,1,11,0.00
2012-1-2,63.4,57.5,54.6,59.2,54.2,51.4,91,89,75,30.16,30.07,12,2,18,0.01
2012-1-3,49.0,41.7,33.1,24.9,17.7,10.8,67,40,24,30.39,30.27,24,6,24,0.00
2012-1-4,58.2,42.3,30.9,32.5,26.3,20.2,78,55,27,30.43,30.28,8,2,11,0.00
2012-1-5,67.8,47.5,28.0,49.5,38.6,24.1,88,73,50,30.31,30.16,13,2,21,0.00
2012-1-6,71.8,54.3,39.6,55.2,46.3,36.6,91,76,50,30.23,30.10,9,1,13,0.00
2012-1-7,74.0,57.3,44.3,57.9,49.1,41.3,91,76,48,30.18,30.08,7,1,8,0.01
2012-1-8,77.8,61.2,44.3,55.4,49.8,41.3,90,69,41,30.22,30.13,9,2,11,0.00
2012-1-9,79.0,64.1,49.3,60.3,54.3,46.2,91,73,47,30.21,30.06,12,2,14,0.00
2012-1-10,78.5,64.8,52.3,61.3,54.9,49.2,90,72,48,30.09,29.92,14,2,15,0.00
2012-1-11,72.1,64.4,57.2,65.0,59.1,54.1,90,83,72,29.96,29.75,16,4,30,0.06
2012-1-12,77.1,66.6,53.8,62.1,56.9,50.9,91,72,51,29.93,29.82,16,4,22,0.01
2012-1-13,63.3,55.8,47.9,58.1,41.6,32.4,84,61,37,30.22,29.93,15,5,21,0.01
2012-1-14,57.2,46.7,35.4,39.2,31.3,24.8,80,58,29,30.35,30.20,15,4,18,0.00
2012-1-15,69.5,50.0,30.8,46.8,35.6,27.4,89,62,26,30.44,30.32,14,2,17,0.00
2012-1-16,71.7,56.0,40.4,52.8,45.2,35.2,84,69,50,30.44,30.31,18,4,23,0.00
2012-1-17,78.2,60.3,44.7,58.1,50.5,41.4,90,72,47,30.32,30.13,10,2,15,0.00
2012-1-18,76.1,61.2,49.3,60.8,55.1,46.2,90,82,57,30.14,29.95,17,3,22,0.22
2012-1-19,71.9,57.6,45.4,59.4,43.2,30.3,92,64,22,30.17,30.01,11,3,15,0.01
2012-1-20,77.1,59.7,41.0,55.1,47.3,37.4,90,67,38,30.19,30.08,14,3,18,0.00
2012-1-21,78.2,62.6,48.2,59.0,52.1,44.8,90,71,45,30.14,29.99,11,2,15,0.00
2012-1-22,79.2,62.4,46.7,62.0,52.3,43.6,92,72,37,30.12,30.04,7,2,11,0.00
2012-1-23,81.6,67.6,56.4,64.6,59.0,52.5,92,76,51,30.13,30.02,7,1,13,0.00
2012-1-24,83.3,69.0,56.5,64.4,59.1,53.3,92,73,43,30.16,30.06,9,2,14,0.00
2012-1-25,82.7,70.9,61.2,65.2,60.5,58.0,91,72,45,30.16,30.05,15,4,20,0.01
2012-1-26,83.6,70.7,60.4,65.7,60.9,56.8,90,73,48,30.08,29.92,16,4,22,0.00
2012-1-27,70.9,65.9,57.4,65.9,60.8,53.1,90,84,73,30.05,29.89,16,5,24,0.10
2012-1-28,73.0,60.0,49.4,55.1,51.3,46.3,90,74,50,30.18,30.05,15,2,18,0.00
2012-1-29,73.4,60.9,50.2,53.7,48.1,44.2,89,66,37,30.29,30.16,11,4,19,0.00
2012-1-30,73.5,60.9,52.0,50.5,47.2,42.9,82,62,37,30.36,30.26,17,7,23,0.00
2012-1-31,77.2,67.2,52.0,56.8,53.3,46.8,83,62,44,30.34,30.20,17,6,22,0.00
2012-2-1,80.0,65.6,51.7,60.0,54.9,48.3,90,70,44,30.25,30.10,10,2,16,0.00
2012-2-2,81.1,68.1,55.6,65.3,57.7,51.8,90,72,45,30.16,30.05,8,2,12,0.00
2012-2-3,76.5,68.6,63.4,63.7,59.7,57.8,87,74,59,30.21,30.12,19,6,24,0.00
2012-2-4,81.6,70.9,63.6,63.2,60.4,58.5,85,71,51,30.17,30.03,20,6,23,0.00
2012-2-5,82.7,72.1,63.5,66.4,62.9,60.0,90,74,53,30.06,29.94,13,2,13,0.00
2012-2-6,82.6,70.4,63.7,68.0,63.7,59.5,90,80,55,30.07,29.96,17,2,28,0.01
2012-2-7,72.4,67.3,62.8,64.0,62.3,58.6,89,84,74,30.05,29.97,11,5,14,0.03
2012-2-8,78.4,65.2,55.6,58.0,53.1,47.7,90,67,39,30.09,29.98,17,4,19,0.01
2012-2-9,72.9,62.6,53.3,56.9,52.4,47.7,85,70,55,30.15,30.04,14,5,20,0.00
2012-2-10,80.9,67.3,56.9,66.3,59.5,53.1,89,77,59,30.10,29.86,9,3,15,0.37
2012-2-11,66.1,57.8,47.3,59.1,47.9,32.4,89,70,53,30.12,29.84,23,8,30,0.03
2012-2-12,52.3,41.6,31.9,30.1,21.9,14.9,76,47,27,30.35,30.12,16,6,21,0.00
2012-2-13,67.6,50.6,31.4,46.9,36.4,25.0,82,60,41,30.28,30.09,12,3,14,0.00
2012-2-14,77.5,62.3,47.2,58.4,51.8,43.2,87,70,51,30.11,30.01,14,3,17,0.00
2012-2-15,82.1,67.8,54.4,61.8,57.0,50.9,89,70,48,30.18,30.07,10,2,11,0.00
2012-2-16,82.8,70.2,60.1,65.1,60.4,54.9,86,72,50,30.15,30.04,15,3,20,0.00
2012-2-17,78.0,68.9,62.3,67.2,64.2,58.1,90,85,68,30.05,29.97,9,2,11,0.31
2012-2-18,78.2,68.7,63.7,66.4,63.3,60.7,91,83,65,30.00,29.85,6,1,10,0.01
2012-2-19,82.1,70.5,62.6,70.4,63.2,53.1,89,78,63,29.91,29.76,24,8,32,0.01
2012-2-20,71.0,60.4,52.8,53.2,49.5,46.2,84,69,45,30.19,29.90,14,6,22,0.00
2012-2-21,78.0,62.9,48.4,57.8,51.9,44.4,87,69,46,30.22,30.08,10,3,14,0.00
2012-2-22,80.3,67.3,56.7,64.2,59.1,51.7,86,76,58,30.10,29.87,13,3,32,0.04
2012-2-23,84.2,73.4,67.7,68.4,65.0,61.9,89,76,52,29.94,29.85,15,6,24,0.00
2012-2-24,85.9,74.6,67.1,68.8,64.6,63.2,88,73,48,29.99,29.89,18,7,29,0.00
2012-2-25,71.4,65.0,57.5,66.4,46.4,36.6,89,54,31,30.23,29.97,16,7,20,0.00
2012-2-26,70.4,63.2,55.2,60.6,51.7,40.7,81,66,53,30.29,30.20,17,7,22,0.01
2012-2-27,84.7,72.2,65.3,67.9,64.0,60.3,88,77,52,30.27,30.15,16,4,26,0.05
2012-2-28,81.0,70.3,65.2,67.7,63.6,60.2,90,80,60,30.26,30.15,13,4,20,0.01
2012-2-29,86.3,72.9,62.9,67.3,63.6,59.0,91,74,49,30.20,30.04,11,2,18,0.00
2012-3-1,86.7,73.0,62.2,68.0,63.5,57.6,89,74,51,30.09,29.95,14,3,19,0.00
2012-3-2,86.2,72.1,60.8,69.0,62.9,56.7,91,75,46,30.03,29.91,13,3,18,0.01
2012-3-3,87.5,75.4,67.3,70.1,65.3,62.4,89,73,46,29.92,29.76,21,7,27,0.00
2012-3-4,75.9,61.9,44.0,69.0,45.8,26.7,85,59,25,30.20,29.66,23,9,34,0.09
2012-3-5,75.8,57.2,38.0,45.2,37.8,33.0,84,54,23,30.34,30.20,11,2,15,0.00
2012-3-6,76.3,61.2,44.3,57.2,50.4,40.4,88,69,49,30.38,30.29,19,6,30,0.00
2012-3-7,81.5,68.3,58.2,60.1,56.6,51.7,84,68,42,30.36,30.25,17,6,25,0.00
2012-3-8,84.7,71.4,61.1,66.4,62.4,57.6,89,75,49,30.26,30.12,15,5,21,0.03
2012-3-9,83.9,71.6,62.5,68.2,64.1,58.7,89,78,54,30.18,30.04,14,2,19,0.72
2012-3-10,81.7,70.6,64.5,66.3,62.0,59.4,85,75,58,30.20,30.07,19,6,21,0.00
2012-3-11,75.4,68.4,65.5,65.8,61.6,59.0,83,79,71,30.26,30.15,23,7,23,0.11
2012-3-12,79.7,70.3,61.5,63.1,59.4,55.3,81,69,53,30.27,30.17,18,6,23,0.00
2012-3-13,81.7,69.8,57.5,62.6,58.2,51.7,82,68,49,30.24,30.12,13,4,20,0.00
2012-3-14,66.4,62.7,59.8,57.4,55.2,53.3,79,76,74,30.19,30.15,2,0,5,0.00
2012-3-15,83.7,75.0,68.4,64.2,61.3,59.8,74,63,48,30.20,30.11,11,5,18,0.00
2012-3-16,84.3,71.5,59.0,63.8,58.9,53.2,82,66,42,30.21,30.09,16,4,18,0.00
2012-3-17,82.8,70.3,56.6,62.5,57.0,50.8,82,65,41,30.21,30.09,18,4,19,0.00
2012-3-18,84.0,70.1,55.7,62.7,56.6,50.0,82,64,42,30.23,30.10,14,4,23,0.00
2012-3-19,84.0,70.6,57.4,62.8,57.7,51.6,83,65,44,30.16,30.03,20,4,20,0.00
2012-3-20,84.0,74.4,61.7,63.8,59.7,54.4,81,61,46,30.09,29.99,15,6,21,0.00
2012-3-21,83.2,73.5,65.0,67.4,62.4,58.2,82,69,55,30.12,30.01,18,6,23,0.00
2012-3-22,86.4,75.9,66.8,66.4,62.9,60.4,81,65,46,30.14,30.01,14,5,19,0.00
2012-3-23,86.9,74.5,63.4,64.9,61.7,57.5,82,66,43,30.10,29.96,8,2,15,0.29
2012-3-24,84.9,73.1,62.9,67.2,61.7,57.0,81,69,52,30.01,29.86,14,4,20,0.01
2012-3-25,81.5,72.4,60.0,64.7,58.4,49.0,81,63,37,29.91,29.79,14,5,26,0.28
2012-3-26,83.1,68.8,54.8,57.7,52.7,48.4,82,59,36,30.01,29.86,10,2,16,0.00
2012-3-27,85.0,69.8,54.4,61.5,53.5,48.4,81,59,29,30.16,29.99,13,4,25,0.00
2012-3-28,84.0,72.2,58.7,61.0,56.9,52.4,81,60,40,30.16,30.02,15,4,18,0.00
2012-3-29,83.7,72.2,59.6,63.1,58.1,53.4,81,63,43,30.05,29.92,10,2,13,0.00
2012-3-30,85.3,72.2,59.0,63.5,58.4,52.8,81,64,43,30.03,29.93,11,2,16,0.00
2012-3-31,84.1,71.1,64.5,65.7,60.0,56.2,78,69,51,29.97,29.83,19,4,31,0.16
2012-4-1,85.4,72.7,60.2,65.7,60.0,54.4,82,66,46,29.92,29.81,13,3,17,0.01
2012-4-2,88.3,72.6,59.8,65.7,60.2,53.7,82,67,39,29.91,29.81,11,2,16,0.00
2012-4-3,90.8,75.4,62.5,66.3,59.4,55.8,81,61,33,29.95,29.84,9,2,20,0.01
2012-4-4,88.7,74.7,61.0,67.3,60.4,54.5,81,63,44,29.95,29.76,13,3,21,0.00
2012-4-5,84.8,74.3,65.4,66.4,60.8,57.2,79,63,46,29.84,29.72,19,5,22,0.03
2012-4-6,82.7,72.9,64.6,64.9,58.2,51.6,79,62,36,29.94,29.71,21,6,28,0.04
2012-4-7,79.9,69.3,60.1,58.4,52.8,48.8,69,56,43,30.13,29.94,20,8,24,0.00
2012-4-8,81.7,68.4,51.9,57.1,51.7,44.6,79,56,41,30.16,30.03,15,4,18,0.00
2012-4-9,83.8,70.0,54.6,59.1,53.2,47.3,79,57,37,30.08,29.94,9,1,14,0.00
2012-4-10,85.8,71.8,56.9,62.3,55.6,49.4,79,59,35,30.05,29.92,12,2,17,0.00
2012-4-11,85.2,75.4,61.9,61.9,57.1,51.3,79,55,36,30.03,29.91,12,4,17,0.00
2012-4-12,84.6,72.6,60.2,59.5,52.5,46.6,74,52,28,30.05,29.95,14,4,19,0.00
2012-4-13,85.7,73.6,62.8,61.5,57.2,54.5,78,58,36,30.11,29.98,20,5,21,0.00
2012-4-14,77.7,70.9,65.1,60.1,57.2,54.9,77,63,49,30.21,30.08,17,7,25,0.01
2012-4-15,82.7,73.2,63.1,61.4,56.4,53.0,70,56,45,30.19,30.11,18,6,23,0.00
2012-4-16,84.1,73.4,63.5,61.6,57.0,54.0,74,57,41,30.19,30.09,14,5,17,0.00
2012-4-17,86.2,73.0,59.0,62.5,57.1,51.4,78,59,41,30.15,30.00,14,4,18,0.00
2012-4-18,85.0,74.4,63.1,64.0,58.6,55.1,78,59,43,30.08,29.91,13,4,20,0.00
2012-4-19,81.6,72.5,66.2,66.2,61.0,56.5,77,68,49,29.96,29.85,9,2,18,0.05
2012-4-20,84.7,72.5,64.6,66.6,61.0,54.7,81,68,48,29.90,29.80,13,3,18,0.02
2012-4-21,79.1,70.2,66.3,63.0,60.5,59.0,79,72,53,29.85,29.70,13,4,20,0.02
2012-4-22,79.6,71.0,60.6,61.5,56.9,52.2,81,62,48,29.72,29.52,19,7,30,0.81
2012-4-23,72.1,62.8,50.8,52.0,45.4,40.6,73,54,39,29.88,29.72,29,6,33,0.00
2012-4-24,71.6,59.5,46.5,42.9,37.6,31.3,69,46,28,30.02,29.88,22,4,23,0.00
2012-4-25,81.2,63.2,44.4,52.3,45.2,37.0,79,55,30,30.10,30.00,8,1,12,0.00
2012-4-26,86.0,69.8,53.0,61.9,54.1,45.2,79,59,37,30.12,30.00,10,2,13,0.00
2012-4-27,88.8,73.1,56.3,62.6,55.7,46.1,80,57,24,30.10,29.98,12,2,18,0.00
2012-4-28,88.0,76.3,63.2,67.9,61.9,55.9,79,62,47,30.07,29.97,13,4,21,0.04
2012-4-29,85.2,75.7,66.7,66.2,62.9,59.8,80,65,48,30.08,29.99,13,5,21,0.00
2012-4-30,86.4,76.4,67.8,66.3,62.5,59.8,79,63,47,30.08,30.00,22,7,28,0.00
2012-5-1,88.2,77.8,69.4,66.9,62.7,59.0,77,61,46,30.06,29.96,18,7,26,0.00
2012-5-2,89.5,77.9,68.6,68.7,63.5,58.7,80,62,46,30.07,29.98,15,6,23,0.00
2012-5-3,90.9,78.5,67.9,67.9,63.2,60.1,79,61,39,30.08,29.98,14,5,22,0.00
2012-5-4,88.4,77.1,66.9,66.6,62.6,58.8,80,62,46,30.08,29.95,9,3,17,0.00
2012-5-5,91.6,78.5,64.9,67.9,62.1,57.9,79,59,37,30.00,29.87,8,2,12,0.00
2012-5-6,89.9,77.9,67.1,69.0,63.7,60.1,80,63,43,29.96,29.83,14,3,20,0.00
2012-5-7,91.3,75.1,65.4,67.7,62.4,58.4,80,67,39,29.90,29.78,12,3,22,1.06
2012-5-8,89.3,75.8,64.9,67.4,62.7,58.9,81,66,43,29.89,29.78,10,2,15,0.01
2012-5-9,83.7,72.1,66.9,67.9,62.8,60.2,80,73,50,29.86,29.82,9,1,12,0.00
2012-5-11,87.5,81.1,71.1,66.0,61.4,54.3,57,51,46,30.10,29.96,18,8,23,0.00
2012-5-12,87.2,76.3,66.3,65.7,59.8,54.6,72,57,45,30.15,30.06,19,7,25,0.00
2012-5-13,86.0,74.6,61.4,66.7,59.7,53.8,78,61,45,30.11,29.98,15,4,18,0.00
2012-5-14,87.4,76.1,71.3,67.7,63.4,61.6,75,66,46,30.03,29.89,12,3,17,0.02
2012-5-15,91.1,76.8,68.5,69.7,64.4,60.8,79,67,47,30.01,29.87,13,2,24,0.06
2012-5-16,82.6,72.2,67.7,66.5,63.1,60.5,80,74,51,30.00,29.90,14,1,15,0.75
2012-5-17,87.1,76.5,68.5,67.3,63.2,59.0,81,65,45,29.94,29.80,10,2,14,0.01
2012-5-18,89.1,75.2,64.5,68.1,62.5,57.8,80,66,46,29.92,29.82,11,2,17,0.21
2012-5-19,89.0,77.3,69.0,66.5,63.1,60.0,79,63,43,29.98,29.85,14,5,20,0.01
2012-5-20,88.8,77.4,67.6,64.6,58.9,48.8,75,55,26,29.98,29.87,13,4,19,0.00
2012-5-21,89.9,76.4,60.1,62.5,57.5,53.2,79,55,34,29.98,29.86,11,2,16,0.00
2012-5-22,92.2,77.9,62.3,65.7,59.6,54.8,78,56,30,29.95,29.81,9,1,14,0.00
2012-5-23,92.1,78.9,65.9,67.4,62.5,58.2,79,59,33,29.90,29.78,13,2,21,0.00
2012-5-24,91.0,79.4,70.2,69.7,65.6,62.4,79,64,49,29.89,29.80,18,4,24,0.03
2012-5-25,93.2,80.9,69.6,70.6,66.1,62.8,80,62,46,30.02,29.88,14,4,20,0.00
2012-5-26,94.0,81.1,65.8,68.5,64.0,58.8,80,58,39,30.03,29.90,13,4,20,0.00
2012-5-27,91.7,78.4,70.2,69.7,64.3,58.4,75,63,45,29.95,29.76,15,4,24,0.43
2012-5-28,84.6,78.1,72.1,70.5,66.2,61.9,75,67,54,29.90,29.79,15,5,21,0.10
2012-5-29,85.3,75.8,71.3,69.0,65.8,61.8,80,72,53,29.92,29.82,12,3,31,0.05
2012-5-30,90.8,81.0,72.8,70.9,68.1,65.9,80,66,51,29.88,29.77,15,4,20,0.03
2012-5-31,90.0,79.7,70.8,71.9,66.4,62.7,81,65,50,29.91,29.80,15,2,17,0.00
2012-6-1,77.8,73.0,69.4,69.2,65.8,63.0,82,78,71,29.93,29.81,9,1,15,0.05
2012-6-2,89.6,78.7,69.7,71.3,66.2,63.0,82,67,51,29.95,29.85,13,4,23,0.03
2012-6-3,92.2,79.3,65.8,69.4,64.3,59.1,80,62,46,30.02,29.91,11,2,12,0.02
2012-6-4,89.0,79.0,66.3,69.2,64.9,59.2,79,63,50,29.96,29.81,20,4,23,0.00
2012-6-5,85.6,77.1,72.9,70.3,66.8,63.2,79,71,54,29.85,29.76,14,4,25,0.01
2012-6-6,85.0,74.9,69.6,70.8,65.4,59.4,78,73,55,29.90,29.80,20,4,33,0.01
2012-6-7,81.1,74.1,70.0,70.9,66.8,63.2,81,78,70,29.95,29.87,19,2,26,1.07
2012-6-8,86.5,75.7,71.1,70.6,66.8,65.0,81,75,53,29.97,29.86,11,2,16,0.82
2012-6-9,90.4,78.0,70.8,71.4,67.4,64.3,81,71,51,30.01,29.87,14,3,18,0.37
2012-6-10,93.7,81.0,71.9,72.3,68.4,63.7,81,67,48,30.10,29.95,17,4,24,0.01
2012-6-11,91.9,80.6,68.8,71.4,66.4,61.7,79,63,50,30.10,30.00,14,3,15,0.00
2012-6-12,92.9,78.7,70.2,71.5,65.5,61.8,78,65,48,30.07,29.91,24,2,36,0.20
2012-6-13,92.6,80.4,70.0,71.7,66.6,62.5,80,64,47,29.96,29.82,10,3,17,0.00
2012-6-14,91.6,77.5,69.5,70.9,65.6,62.3,78,68,50,29.98,29.85,14,2,30,0.24
2012-6-15,87.8,77.3,68.6,70.6,64.7,62.0,81,66,51,30.02,29.92,20,4,24,0.01
2012-6-16,88.3,79.3,71.7,67.3,64.1,59.5,77,61,46,30.02,29.95,18,6,24,0.00
2012-6-17,87.8,78.1,67.9,67.2,62.6,58.0,78,60,49,30.04,29.91,14,5,20,0.00
2012-6-18,88.6,77.6,65.5,66.1,61.7,57.5,78,59,45,30.03,29.94,23,4,30,0.00
2012-6-19,86.8,77.5,68.2,65.7,62.1,59.3,76,60,48,30.04,29.98,18,6,22,0.00
2012-6-20,86.6,76.7,72.6,68.8,65.5,61.7,79,69,52,30.02,29.94,17,6,22,0.27
2012-6-21,88.2,78.1,73.6,70.5,68.1,66.3,80,72,52,29.97,29.85,13,4,22,0.09
2012-6-22,88.2,77.9,72.8,71.4,68.2,66.2,80,73,53,29.90,29.81,9,2,20,0.74
2012-6-23,81.3,77.1,73.2,70.8,68.6,66.6,81,75,65,29.93,29.83,11,3,14,0.05
2012-6-24,77.5,75.0,72.5,70.5,68.3,65.6,81,80,77,29.92,29.67,22,9,35,3.51
2012-6-25,81.5,77.2,74.4,70.9,68.6,67.2,80,75,66,29.73,29.62,21,9,31,1.23
2012-6-26,84.0,79.1,76.0,72.8,69.5,66.6,79,73,64,29.63,29.56,19,8,34,0.52
2012-6-27,88.2,78.3,71.8,69.7,66.9,63.3,79,69,52,29.98,29.58,14,6,24,0.04
2012-6-28,91.8,78.7,66.5,67.2,63.0,59.4,80,60,40,30.05,29.97,10,2,13,0.00
2012-6-29,91.6,79.6,66.8,69.6,64.9,59.6,79,62,44,30.03,29.89,8,2,12,0.00
2012-6-30,90.4,78.9,67.1,69.3,64.7,60.1,79,63,42,29.98,29.90,12,3,16,0.00
2012-7-1,92.8,80.0,66.8,71.8,66.0,59.7,80,64,48,30.05,29.94,11,2,16,0.00
2012-7-2,92.9,81.9,71.4,71.5,67.5,61.7,79,63,49,30.07,29.94,8,2,15,0.00
2012-7-3,94.3,79.8,70.1,72.3,66.9,61.7,78,66,49,30.04,29.94,12,2,28,0.30
2012-7-4,92.6,79.6,72.5,72.1,67.5,64.8,80,68,46,30.05,29.98,10,1,16,0.00
2012-7-5,93.5,80.4,69.7,72.1,66.7,62.5,78,64,48,30.04,29.93,9,2,19,0.04
2012-7-6,94.1,81.0,71.6,70.9,67.5,64.2,79,65,42,30.03,29.94,10,2,20,0.26
2012-7-7,93.8,82.8,72.0,71.8,68.0,65.1,80,63,39,30.05,29.98,11,2,19,0.01
2012-7-8,95.6,84.4,73.4,73.4,68.4,65.5,78,60,45,30.06,29.95,11,3,15,0.00
2012-7-9,95.1,83.0,73.9,72.3,68.0,65.5,78,62,46,30.01,29.91,19,2,27,0.00
2012-7-10,91.6,78.8,72.7,71.4,67.1,65.1,78,68,49,30.02,29.93,11,2,13,0.41
2012-7-11,87.2,76.3,70.9,71.7,67.6,64.4,80,75,55,30.02,29.92,13,1,26,0.52
2012-7-12,90.5,81.4,72.4,71.0,67.2,65.5,80,63,50,30.00,29.90,9,3,14,0.01
2012-7-13,90.7,81.4,74.6,70.1,67.5,64.2,78,64,51,30.04,29.94,20,5,27,0.01
2012-7-14,91.1,81.8,74.6,71.5,67.7,65.5,78,63,50,30.07,29.97,16,4,20,0.06
2012-7-15,90.1,77.9,72.5,70.6,67.4,66.0,80,71,50,30.08,30.00,18,2,26,1.45
2012-7-16,87.6,77.1,70.4,71.1,67.4,63.2,81,73,52,30.05,29.92,11,2,19,0.62
2012-7-17,85.4,76.0,70.3,71.2,67.3,63.1,80,75,58,30.00,29.93,10,2,16,0.33
2012-7-18,86.9,76.9,72.1,71.2,67.9,65.5,80,74,57,30.09,29.96,8,1,22,0.12
2012-7-19,92.8,80.8,72.1,73.6,68.6,65.2,80,68,51,30.14,30.05,9,2,14,0.00
2012-7-20,94.7,83.4,72.8,72.7,69.4,65.9,79,64,47,30.09,29.99,10,2,13,0.00
2012-7-21,94.9,83.9,75.4,72.9,68.8,64.3,78,62,47,30.08,29.98,12,3,14,0.00
2012-7-22,91.5,79.1,74.0,72.6,68.2,62.8,78,70,50,30.13,30.01,14,3,29,0.23
2012-7-23,86.0,75.8,71.4,72.8,67.8,64.6,80,76,61,30.13,30.05,14,2,18,1.33
2012-7-24,89.8,78.1,71.1,74.0,68.8,64.6,81,74,53,30.11,29.99,10,2,17,0.75
2012-7-25,92.2,82.0,73.9,74.8,69.7,66.7,80,67,51,30.01,29.94,11,3,18,0.06
2012-7-26,92.9,82.8,74.4,73.1,69.3,67.3,80,65,50,30.00,29.93,11,3,15,0.00
2012-7-27,94.4,82.5,73.6,72.7,68.7,66.6,80,64,46,30.06,29.95,11,2,17,0.00
2012-7-28,93.1,82.3,73.6,72.3,68.5,65.5,79,64,49,30.07,29.97,8,1,12,0.00
2012-7-29,93.1,82.9,73.7,73.2,68.7,65.7,80,64,48,30.04,29.94,11,2,17,0.00
2012-7-30,91.7,79.9,73.2,72.6,68.0,63.5,80,68,50,30.01,29.96,21,2,30,0.32
2012-7-31,92.4,80.6,72.0,71.1,67.5,64.8,78,65,48,30.01,29.93,12,2,19,0.00
2012-8-1,89.2,79.2,72.9,72.4,68.5,65.7,80,70,53,29.98,29.89,11,2,25,0.17
2012-8-2,93.5,82.4,73.1,72.9,69.0,65.7,80,65,46,29.97,29.87,9,2,14,0.00
2012-8-3,92.3,79.4,71.2,71.6,66.9,63.3,77,66,51,30.00,29.90,11,2,28,0.37
2012-8-6,92.4,82.5,74.3,72.7,69.2,66.6,79,65,50,30.03,29.92,14,4,20,0.02
2012-8-7,92.4,81.0,72.8,72.4,68.5,63.8,80,67,50,30.01,29.93,9,2,19,0.00
2012-8-8,94.2,82.5,75.3,72.2,68.5,64.0,77,63,49,30.02,29.93,10,2,13,0.00
2012-8-9,95.5,82.0,71.1,73.7,67.8,63.3,78,63,48,30.00,29.88,11,2,20,0.77
2012-8-10,93.1,80.4,73.0,72.7,68.6,64.4,80,69,50,29.97,29.87,11,2,19,0.01
2012-8-11,90.3,79.7,73.4,71.8,68.5,66.1,79,69,51,30.00,29.89,9,2,15,0.18
2012-8-12,90.1,77.5,72.2,74.0,68.2,64.7,80,74,52,30.02,29.93,13,2,29,0.12
2012-8-13,89.6,79.0,72.7,72.2,68.8,66.2,80,72,52,30.05,29.96,6,1,10,0.01
2012-8-14,93.8,79.4,72.6,72.7,68.6,65.1,79,71,49,30.01,29.92,12,2,20,0.36
2012-8-15,91.9,81.3,71.4,72.9,68.9,65.1,81,67,52,30.02,29.92,6,1,11,0.00
2012-8-16,92.4,83.1,74.8,72.9,69.5,64.7,78,64,52,30.05,29.95,10,2,22,0.19
2012-8-17,89.8,80.2,73.6,73.2,68.8,65.9,79,69,52,30.01,29.89,9,1,18,0.00
2012-8-18,83.9,77.3,73.2,74.1,68.6,65.9,80,75,62,29.98,29.86,13,2,17,0.26
2012-8-19,90.9,80.8,73.3,72.8,69.1,66.5,80,69,51,29.97,29.86,15,3,20,0.00
2012-8-20,93.6,82.7,73.8,73.0,69.0,65.3,79,65,50,30.01,29.84,19,4,24,0.23
2012-8-21,92.3,77.0,71.0,72.1,66.7,63.5,79,71,51,30.08,29.92,21,3,24,1.38
2012-8-22,87.8,74.6,71.0,69.5,65.8,63.2,80,75,52,30.07,29.96,24,2,30,0.41
2012-8-23,92.0,79.9,69.9,71.3,66.6,63.5,80,65,50,30.07,29.98,9,2,13,0.00
2012-8-24,92.2,80.6,72.0,70.6,66.8,64.3,78,64,48,30.03,29.91,18,3,20,0.00
2012-8-25,89.1,79.5,71.0,69.4,65.7,62.3,76,63,51,29.99,29.90,21,6,23,0.00
2012-8-26,82.7,78.2,74.8,72.8,69.0,65.0,78,73,66,29.96,29.80,21,7,25,0.36
2012-8-27,83.2,78.3,74.4,72.4,69.6,67.5,80,75,67,29.86,29.72,22,10,29,2.74
2012-8-28,87.5,81.3,76.1,73.5,70.1,67.2,75,69,58,29.95,29.85,14,6,20,0.01
2012-8-29,91.3,79.8,74.4,71.4,68.5,66.5,79,69,51,29.96,29.87,14,4,24,0.21
2012-8-30,93.3,81.7,72.6,72.2,69.0,65.7,80,67,50,30.08,29.92,11,2,19,0.01
2012-8-31,91.6,82.5,74.4,73.2,68.8,66.3,79,65,50,30.14,30.05,9,3,15,0.00
2012-9-1,90.7,82.0,73.6,72.7,68.0,64.1,79,64,49,30.12,30.01,18,3,19,0.00
2012-9-2,89.8,79.3,68.3,70.2,64.8,59.1,79,63,49,30.06,29.94,14,2,16,0.00
2012-9-3,92.0,79.3,67.4,70.1,65.4,60.3,79,64,47,30.02,29.93,9,1,12,0.00
2012-9-4,92.2,80.6,70.3,70.4,66.4,63.2,79,63,46,29.99,29.88,12,2,15,0.00
2012-9-5,90.6,78.2,70.4,71.0,65.7,61.2,79,67,50,29.96,29.87,12,3,23,0.07
2012-9-6,90.2,76.5,70.5,70.7,66.3,63.1,79,72,51,29.99,29.90,10,2,30,0.55
2012-9-8,91.8,84.7,78.2,70.6,67.7,63.5,71,57,50,29.88,29.83,14,5,17,0.00
2012-9-9,79.9,77.4,74.6,71.5,69.0,66.5,78,75,70,29.92,29.83,11,3,19,0.28
2012-9-12,85.1,80.7,76.0,68.4,66.0,64.0,69,61,54,30.09,30.02,18,7,25,0.00
2012-9-13,87.8,80.0,72.9,69.5,66.1,64.5,75,63,51,30.07,29.98,14,5,21,0.00
2012-9-14,86.1,78.8,74.2,71.4,66.9,65.2,76,67,55,30.04,29.95,15,5,25,0.00
2012-9-15,87.2,78.5,72.8,70.4,66.6,63.8,77,68,51,30.04,29.96,13,4,19,0.00
2012-9-16,89.6,77.9,72.2,69.6,67.1,64.7,79,70,49,30.03,29.94,18,2,22,0.08
2012-9-17,91.1,78.2,70.7,70.8,66.4,63.5,79,69,48,29.99,29.85,12,3,22,0.07
2012-9-18,86.8,75.6,72.5,72.0,67.5,64.9,79,76,59,29.93,29.84,15,4,30,1.39
2012-9-19,88.3,78.5,72.2,71.9,67.6,62.5,80,70,51,30.01,29.88,14,2,24,0.00
2012-9-20,87.9,78.8,72.3,70.0,66.9,65.0,78,68,50,30.01,29.90,6,1,11,0.00
2012-9-21,88.4,76.8,70.8,69.8,66.2,63.3,79,71,52,29.98,29.87,17,3,29,0.53
2012-9-22,86.5,77.6,71.3,71.6,66.1,64.5,79,69,51,30.01,29.91,7,2,15,0.01
2012-9-23,91.4,82.0,71.4,68.9,65.9,62.9,78,59,45,30.04,29.95,10,2,16,0.00
2012-9-24,84.2,75.7,70.8,64.9,60.1,56.3,77,59,40,30.07,29.98,10,2,17,0.00
2012-9-25,86.0,74.2,63.5,65.2,60.5,55.4,76,63,48,30.07,30.00,6,1,8,0.00
2012-9-26,88.6,76.2,68.8,68.9,65.2,61.0,78,70,49,30.08,30.00,7,1,18,1.19
2012-9-27,91.0,78.4,69.7,72.6,65.8,61.5,79,67,46,30.08,29.96,11,2,25,0.00
2012-9-28,91.0,78.9,71.2,70.9,66.2,63.8,79,66,48,30.02,29.89,11,2,18,0.00
2012-9-29,90.6,79.8,70.9,71.0,66.7,63.7,79,66,48,29.96,29.80,8,2,11,0.00
2012-9-30,91.1,79.4,71.4,70.3,66.9,63.8,78,67,49,29.87,29.73,9,1,13,0.01
2012-10-1,88.8,79.5,73.2,72.8,67.7,65.6,78,68,51,29.79,29.69,10,2,19,0.41
2012-10-2,85.6,77.3,72.7,70.9,67.9,65.3,78,73,58,30.00,29.77,10,4,14,0.14
2012-10-3,89.1,76.8,72.5,72.0,67.4,65.3,79,73,51,30.13,29.98,10,3,17,0.10
2012-10-4,91.3,77.4,71.8,73.8,66.9,63.5,79,71,49,30.15,30.02,14,3,24,0.24
2012-10-5,90.4,77.8,71.6,71.3,66.9,63.6,78,70,49,30.10,29.91,13,3,29,0.27
2012-10-6,88.6,78.1,72.0,73.4,66.9,64.0,79,69,50,29.96,29.82,13,2,22,0.01
2012-10-7,88.4,76.5,69.4,68.3,64.9,62.2,79,68,50,29.95,29.87,9,2,24,0.00
2012-10-8,88.1,76.3,70.3,70.5,65.8,63.0,78,71,50,30.00,29.89,8,2,13,0.13
2012-10-9,86.5,76.2,69.9,69.2,65.4,62.9,79,70,51,30.02,29.93,9,2,14,0.00
2012-10-10,85.7,75.4,66.7,65.3,61.9,57.3,75,64,48,30.08,29.99,9,3,14,0.00
2012-10-11,85.9,76.2,63.8,65.1,61.0,56.5,78,60,48,30.13,30.06,12,5,21,0.00
2012-10-12,86.0,74.4,65.0,64.0,59.1,53.6,75,60,44,30.15,30.06,14,5,20,0.00
2012-10-13,85.5,73.7,64.7,65.1,59.8,55.0,76,63,49,30.14,30.05,21,5,25,0.00
2012-10-14,88.3,81.6,69.5,67.3,64.3,60.9,74,56,49,30.05,29.95,14,6,19,0.00
2012-10-15,88.4,77.1,70.3,69.4,65.0,62.6,78,67,49,29.95,29.77,10,2,13,0.00
2012-10-16,85.9,75.4,67.1,65.7,62.0,58.6,78,64,50,29.84,29.75,10,2,14,0.00
2012-10-17,81.1,72.7,64.9,66.5,62.0,56.7,77,70,59,29.86,29.77,7,1,11,0.00
2012-10-18,88.5,76.4,67.2,68.1,63.4,59.4,79,66,50,29.87,29.75,8,2,12,0.00
2012-10-19,88.4,76.1,64.7,68.8,62.9,57.3,78,65,49,29.84,29.76,9,1,13,0.00
2012-10-20,83.5,73.7,59.4,65.2,57.8,46.0,77,59,42,29.94,29.81,10,3,15,0.00
2012-10-21,83.0,68.8,54.2,58.4,52.0,45.8,75,57,37,30.03,29.92,12,4,17,0.00
2012-10-22,84.7,72.8,62.8,63.3,57.5,52.6,75,59,47,30.05,29.95,20,6,23,0.00
2012-10-23,83.7,72.8,61.7,63.7,58.3,53.6,76,61,51,30.03,29.93,15,5,22,0.00
2012-10-24,86.3,75.9,68.0,65.7,61.6,56.8,74,62,48,29.99,29.87,16,6,27,0.00
2012-10-25,82.5,75.0,71.1,66.7,63.3,61.2,76,68,51,29.90,29.76,20,6,23,0.00
2012-10-26,85.0,76.5,71.4,64.3,61.6,57.0,76,61,47,29.76,29.58,28,10,34,0.00
2012-10-27,75.0,70.6,65.9,57.7,55.3,52.4,67,59,53,29.67,29.53,21,9,26,0.00
2012-10-28,74.2,67.8,60.6,58.1,53.9,44.4,74,62,53,29.77,29.65,19,8,26,0.00
2012-10-29,68.2,57.6,47.9,45.6,41.0,36.1,71,55,36,29.85,29.73,24,7,27,0.00
2012-10-30,66.7,55.6,40.7,45.8,38.9,28.5,72,54,40,29.93,29.81,27,5,35,0.00
2012-10-31,71.7,57.5,46.4,50.5,44.0,39.0,77,62,46,30.03,29.93,17,4,24,0.00
2012-11-1,77.1,62.9,50.5,58.1,51.1,43.4,78,66,52,30.01,29.91,16,2,18,0.00
2012-11-2,78.2,62.6,48.7,55.8,48.5,42.2,78,62,38,30.07,29.98,10,2,13,0.00
2012-11-3,83.2,64.7,49.2,61.5,52.0,41.6,78,65,47,30.10,30.01,7,1,10,0.00
2012-11-4,82.1,67.0,55.6,61.4,54.0,48.5,78,65,44,30.09,29.95,8,1,10,0.00
2012-11-5,78.4,67.0,58.0,63.3,54.7,49.0,78,66,50,29.98,29.88,11,2,13,0.00
2012-11-6,77.5,64.2,55.9,59.0,52.8,48.1,78,67,52,29.91,29.77,11,2,15,0.01
2012-11-7,66.7,57.1,47.0,50.3,44.9,38.7,76,64,50,29.97,29.82,20,5,24,0.01
2012-11-8,67.8,55.3,45.2,44.7,39.9,35.8,72,57,39,30.15,29.97,12,4,20,0.00
2012-11-9,73.6,56.7,39.3,51.2,41.8,32.4,77,59,37,30.23,30.13,11,3,14,0.00
2012-11-10,76.8,63.4,50.8,55.1,48.4,41.4,72,59,45,30.28,30.18,12,3,20,0.00
2012-11-11,79.3,66.7,54.7,59.6,53.4,46.4,75,63,50,30.26,30.18,14,4,25,0.00
2012-11-12,82.7,70.0,58.6,62.3,57.3,51.4,78,65,50,30.21,30.11,14,3,21,0.00
2012-11-13,79.8,69.2,58.8,62.8,56.9,51.6,78,66,51,30.15,30.05,8,1,11,0.00
2012-11-14,79.8,67.6,58.8,62.1,57.4,51.6,78,70,52,30.14,30.05,13,4,17,0.00
2012-11-15,65.3,65.0,64.9,57.2,57.0,56.5,76,75,74,30.09,30.03,6,2,10,0.00
2012-11-16,66.5,62.3,58.6,52.1,50.4,49.4,73,65,57,30.14,30.06,11,5,17,0.00
2012-11-17,80.3,67.3,58.6,60.0,54.6,50.0,75,65,48,30.13,30.03,14,6,21,0.00
2012-11-18,73.6,64.0,55.7,56.0,52.4,46.7,73,66,53,30.15,30.07,15,7,22,0.00
2012-11-19,60.2,55.8,50.4,49.5,46.9,43.5,77,72,66,30.14,30.05,15,5,15,0.00
2012-11-20,74.5,62.3,53.3,56.3,50.2,45.9,77,65,53,30.05,29.95,14,5,19,0.00
2012-11-21,73.1,59.9,48.0,51.9,46.2,39.1,77,62,42,30.06,29.95,14,4,20,0.00
2012-11-22,72.0,56.4,43.5,47.3,39.8,32.2,77,56,33,30.16,30.04,19,4,25,0.00
2012-11-23,73.1,54.1,39.3,45.1,36.9,30.0,72,55,31,30.18,30.06,12,2,17,0.00
2012-11-24,74.9,57.2,42.9,55.9,44.1,36.2,77,63,38,30.08,29.96,13,3,17,0.00
2012-11-25,71.8,53.4,39.8,45.0,37.0,32.2,76,57,25,30.14,30.05,7,2,12,0.00
2012-11-26,78.9,59.7,39.1,58.5,46.5,31.2,76,63,47,30.20,30.09,10,1,16,0.00
2012-11-27,80.1,65.9,54.8,60.4,54.1,47.7,78,67,51,30.16,30.04,8,2,14,0.00
2012-11-28,72.9,61.6,56.0,55.3,51.0,47.1,78,69,54,30.24,30.08,14,5,19,0.00
2012-11-29,77.8,63.2,50.8,58.2,50.1,43.7,78,63,50,30.24,30.17,14,6,21,0.00
2012-11-30,78.4,65.9,56.3,57.6,51.2,46.2,73,60,47,30.23,30.13,13,4,19,0.00
2012-12-1,78.5,65.6,52.6,59.7,52.9,44.2,77,65,51,30.22,30.14,18,4,23,0.00
2012-12-2,81.2,68.7,57.7,60.3,55.8,50.2,77,65,48,30.25,30.14,16,4,19,0.00
2012-12-3,80.0,69.4,62.0,59.4,55.9,52.0,76,63,46,30.25,30.15,13,4,18,0.00
2012-12-4,78.7,66.0,54.3,58.0,52.6,47.2,80,63,49,30.25,30.15,10,3,15,0.00
2012-12-5,80.1,67.8,56.6,60.0,54.6,48.1,76,63,49,30.16,30.00,8,3,14,0.00
2012-12-6,82.3,69.2,59.9,61.8,56.5,52.7,77,65,50,30.02,29.89,13,3,15,0.00
2012-12-7,78.2,67.1,61.8,60.7,56.8,54.9,78,70,53,30.00,29.89,10,3,11,0.00
2012-12-8,80.6,69.9,64.4,64.0,59.5,57.4,78,70,53,30.03,29.94,10,2,12,0.20
2012-12-9,79.9,70.4,62.6,63.9,59.8,54.6,77,70,54,30.06,29.97,8,1,10,0.00
2012-12-10,83.4,70.6,58.9,66.6,60.0,51.4,76,70,55,30.00,29.81,12,3,19,0.06
2012-12-11,80.3,72.2,67.1,66.0,62.4,58.9,76,72,61,30.00,29.86,7,2,12,0.03
2012-12-12,81.2,71.8,67.3,66.2,62.5,59.5,76,73,58,30.05,29.97,7,2,15,0.31
2012-12-13,68.7,61.2,55.7,60.4,51.6,46.1,76,71,65,30.16,30.02,13,6,19,0.00
2012-12-14,69.4,60.6,55.6,54.7,50.0,46.3,74,68,58,30.20,30.07,14,7,20,0.00
2012-12-15,78.4,65.0,56.6,60.1,53.5,48.2,76,67,53,30.13,30.02,11,3,13,0.00
2012-12-16,79.7,66.4,54.4,61.1,54.4,46.7,75,66,53,30.04,29.92,8,1,13,0.00
2012-12-17,81.6,68.6,57.6,62.8,56.6,49.8,75,66,52,29.95,29.83,10,2,18,0.00
2012-12-18,79.9,68.8,50.7,64.4,56.5,41.7,75,66,50,30.00,29.85,14,4,24,0.00
2012-12-19,77.9,59.3,43.6,53.1,44.4,36.1,75,60,34,30.09,29.99,8,1,12,0.00
2012-12-20,81.8,68.0,51.6,63.0,55.0,43.2,75,64,53,30.06,29.90,13,4,19,0.17
2012-12-21,69.0,54.8,42.1,59.9,39.4,30.0,73,56,37,30.18,29.91,22,7,28,0.02
2012-12-22,63.8,49.1,34.2,30.9,26.6,23.3,68,45,22,30.27,30.17,11,5,18,0.00
2012-12-23,68.7,48.8,30.3,45.7,34.2,22.7,74,59,35,30.25,30.12,5,1,9,0.00
2012-12-24,69.6,57.6,46.4,52.7,45.4,37.5,73,64,55,30.12,29.94,8,1,18,0.00
2012-12-25,74.9,63.7,50.0,57.2,50.8,42.2,75,64,54,30.00,29.86,10,3,16,0.00
2012-12-26,77.0,64.8,51.3,62.1,52.7,40.8,72,65,55,29.97,29.75,21,7,30,0.27
2012-12-27,64.1,49.4,37.9,44.2,36.8,28.6,72,62,46,30.09,29.97,11,3,13,0.00
2012-12-28,72.6,56.0,37.0,56.2,44.8,29.5,75,67,51,30.08,29.91,10,2,13,0.23
2012-12-29,75.8,66.6,51.4,63.4,55.5,41.2,75,68,55,30.11,29.84,16,7,24,0.05
2012-12-30,56.4,47.3,38.2,41.2,35.0,28.1,69,62,54,30.33,30.11,15,6,24,0.00
2012-12-31,74.9,57.7,41.7,57.0,45.4,33.9,75,64,53,30.31,30.16,15,3,17,0.00
2013-1-1,77.0,62.3,48.3,59.1,50.0,40.4,75,65,54,30.18,30.01,10,2,15,0.00